Regional Weather Roundup
Issued by NWS

Home | Current Version | Previous Version | Text Only | Print | Product List | Glossary Off
Versions: 1 2 3 4 5 6 7 8 9 10 11 12 13 14 15 16 17 18 19 20 21 22 23 24 25 26 27 28 29 30 31 32 33 34 35 36 37 38 39 40 41 42 43 44 45 46 47 48 49 50

000
ASUS44 KMEG 230310
RWRTN
TENNESSEE HOURLY STATE WEATHER ROUNDUP
NATIONAL WEATHER SERVICE MEMPHIS TN
1000 PM CDT SAT APR 22 2017

TNZ002-004-019-021-049-052-054-088>092-230400-
WEST TENNESSEE

CITY           SKY/WX    TMP DP  RH WIND       PRES   REMARKS
MEMPHIS INTL   CLOUDY    53  52  96 N9        29.95S
NWS MEMPHIS      N/A     52 N/A N/A MISG        N/A
JACKSON        CLOUDY    54  53  97 N8        29.93S FOG
DYERSBURG      LGT RAIN  53  52  96 N7        29.96S FOG
SOMERVILLE     CLOUDY    54  52  94 N7        29.92S FOG
UNION CITY     CLOUDY    54  48  82 N13       29.96R
BOLIVAR        CLOUDY    54  52  94 VRB5      29.91F FOG
PARIS          CLOUDY    50  48  93 NE15      29.95S
HUNTINGDON     CLOUDY    54  50  87 NE8       29.93S
LEXINGTON      CLOUDY    54  52  94 N8G14     29.91S FOG
SAVANNAH       CLOUDY    55  54  94 N7G15     29.89S FOG
$$

TNZ008-025-027-028-033-062-065-066-230400-
NORTH MIDDLE TENNESSEE

CITY           SKY/WX    TMP DP  RH WIND       PRES   REMARKS
NASHVILLE      CLOUDY    53  50  89 NE13      29.93R
PORTLAND       CLOUDY    52  50  93 NE9       29.93S
CLARKSVILLE    CLOUDY    53  47  79 N12       29.96R
SMYRNA         CLOUDY    53  51  93 NE10      29.92R
COOKEVILLE     CLOUDY    55  54  94 N6        29.88S
CROSSVILLE     FOG       52  51  97 NE6       29.91S VSB 1/2
$$

TNZ061-075-076-078-094-096-097-230400-
SOUTH MIDDLE TENNESSEE

CITY           SKY/WX    TMP DP  RH WIND       PRES   REMARKS
FAYETTEVILLE   CLOUDY    61  59  94 N6        29.85S
TULLAHOMA      CLOUDY    59  57  94 CALM      29.88S
WINCHESTER     CLOUDY    61  59  94 CALM      29.86F
MCMINNVILLE    CLOUDY    55  55 100 NE8       29.87F
COLUMBIA       CLOUDY   N/A N/A N/A NE8       29.88S
SHELBYVILLE    CLOUDY    57  57 100 N7        29.89S
$$

TNZ017-018-042-046-047-230400-
NORTHEAST TENNESSEE

CITY           SKY/WX    TMP DP  RH WIND       PRES   REMARKS
TRI CITIES     LGT RAIN  55  54  96 E7        29.92F
ELIZABETHTON   LGT RAIN  59  59 100 CALM      29.96F
$$

TNZ012-013-036-069-073-074-230400-
CENTRAL EAST TENNESSEE

CITY           SKY/WX    TMP DP  RH WIND       PRES   REMARKS
KNOXVILLE      RAIN      60  56  86 SE6       29.86F
OAK RIDGE      CLOUDY    57  54  89 CALM      29.90F
DOWNTOWN KNOXV MOCLDY    61  59  94 CALM      29.88F
GATLINBURG     MOCLDY    57  54  88 VRB3      29.89F
MORRISTOWN     MOCLDY    59  57  94 SE5       29.89F
JACKSBORO      CLOUDY    54  54 100 CALM      29.94S
$$

TNZ083-085-099-230400-
SOUTHEAST TENNESSEE

CITY           SKY/WX    TMP DP  RH WIND       PRES   REMARKS
CHATTANOOGA    CLOUDY    61  61 100 CALM      29.89R
$$

SKY/WX REPORTED AS FAIR MEANS FEW OR NO CLOUDS BELOW
12 THOUSAND FEET.




USA.gov is the U.S. government's official web portal to all federal, state and local government web resources and services.